KE4OGG Weather Reports


Display with metric or nautical units.
time (UTC)temp
F
wind
direction
speed
MPH
gust
MPH
rain 1hr
in
rain 24hr
in
rain mn
in
humidity
%
barometer
mb
20260901131549 79 0 0.0 1.0 0.00 0.00 0.00 59 1021.8
20260901131026 78 0 0.0 1.0 0.00 0.00 0.00 59 1021.8
20260901130531 78 0 0.0 1.0 0.00 0.00 0.00 59 1021.8
20260901130049 77 300 0.0 0.0 0.00 0.00 0.00 59 1021.8
20260901125525 77 0 0.0 0.0 0.00 0.00 0.00 61 1021.8
20260901125026 76 0 0.0 0.0 0.00 0.00 0.00 62 1021.8
20260901124546 76 0 0.0 1.0 0.00 0.00 0.00 61 1021.7
20260901124025 75 0 0.0 1.0 0.00 0.00 0.00 62 1021.7
20260901123527 75 348 0.0 1.0 0.00 0.00 0.00 62 1021.7
20260901123048 75 0 0.0 1.0 0.00 0.00 0.00 63 1021.8
20260901122526 74 0 0.0 1.0 0.00 0.00 0.00 64 1021.6
20260901122023 74 307 0.0 0.0 0.00 0.00 0.00 64 1021.6
20260901121602 74 0 0.0 1.0 0.00 0.00 0.00 64 1021.7
20260901121027 73 0 0.0 1.0 0.00 0.00 0.00 65 1021.5
20260901120526 73 0 0.0 1.0 0.00 0.00 0.00 66 1021.3
20260901120046 72 0 0.0 1.0 0.00 0.00 0.00 68 1021.3
20260901115528 72 0 0.0 0.0 0.00 0.00 0.00 72 1021.3
20260901115025 71 0 0.0 1.0 0.00 0.00 0.00 73 1021.1
20260901114545 71 0 0.0 1.0 0.00 0.00 0.00 73 1021.0
20260901114030 71 0 0.0 0.0 0.00 0.00 0.00 73 1021.0
20260901113527 71 0 0.0 0.0 0.00 0.00 0.00 73 1020.9
20260901113041 71 0 0.0 0.0 0.00 0.00 0.00 73 1020.9
20260901112524 71 0 0.0 0.0 0.00 0.00 0.00 73 1020.8
20260901112026 71 0 0.0 0.0 0.00 0.00 0.00 73 1020.7
20260901111618 71 0 0.0 0.0 0.00 0.00 0.00 74 1020.7
20260901111028 71 0 0.0 0.0 0.00 0.00 0.00 73 1020.8
20260901110527 71 0 0.0 0.0 0.00 0.00 0.00 73 1020.7
20260901110049 71 0 0.0 0.0 0.00 0.00 0.00 73 1020.7
20260901105526 71 0 0.0 0.0 0.00 0.00 0.00 73 1020.7
20260901105028 71 0 0.0 0.0 0.00 0.00 0.00 72 1020.7
20260901104555 72 0 0.0 0.0 0.00 0.00 0.00 72 1020.7
20260901104026 72 0 0.0 0.0 0.00 0.00 0.00 72 1020.5
20260901103527 72 0 0.0 0.0 0.00 0.00 0.00 73 1020.5
20260901103048 71 0 0.0 0.0 0.00 0.00 0.00 73 1020.6
20260901102526 71 0 0.0 0.0 0.00 0.00 0.00 74 1020.5
20260901102025 71 0 0.0 0.0 0.00 0.00 0.00 73 1020.6
20260901101548 71 0 0.0 0.0 0.00 0.00 0.00 72 1020.6
20260901101028 71 0 0.0 0.0 0.00 0.00 0.00 71 1020.5
20260901100524 71 0 0.0 0.0 0.00 0.00 0.00 71 1020.4
20260901095524 72 0 0.0 0.0 0.00 0.00 0.00 70 1020.5
20260901095024 72 0 0.0 0.0 0.00 0.00 0.00 70 1020.5
20260901094549 72 0 0.0 0.0 0.00 0.00 0.00 69 1020.5
20260901094024 72 0 0.0 0.0 0.00 0.00 0.00 69 1020.5
20260901093523 72 0 0.0 0.0 0.00 0.00 0.00 70 1020.5
20260901093052 72 0 0.0 1.0 0.00 0.00 0.00 70 1020.5
20260901092531 72 0 0.0 1.0 0.00 0.00 0.00 69 1020.5
20260901092025 72 281 0.0 1.0 0.00 0.00 0.00 70 1020.4
20260901091553 73 0 0.0 1.0 0.00 0.00 0.00 69 1020.3
20260901091024 73 0 0.0 1.0 0.00 0.00 0.00 69 1020.4
20260901090528 73 281 0.0 1.0 0.00 0.00 0.00 69 1020.2
20260901090044 73 0 0.0 1.0 0.00 0.00 0.00 69 1020.1
20260901085525 73 0 0.0 0.0 0.00 0.00 0.00 70 1020.1
20260901085025 73 0 0.0 0.0 0.00 0.00 0.00 70 1020.2
20260901084547 73 0 0.0 0.0 0.00 0.00 0.00 71 1020.2
20260901084026 73 0 0.0 1.0 0.00 0.00 0.00 71 1020.2
20260901083526 73 0 0.0 1.0 0.00 0.00 0.00 72 1020.2
20260901083048 73 0 0.0 1.0 0.00 0.00 0.00 72 1020.2
20260901082526 73 0 0.0 1.0 0.00 0.00 0.00 73 1020.3
20260901082026 73 0 0.0 1.0 0.00 0.00 0.00 73 1020.3
20260901081546 73 0 0.0 1.0 0.00 0.00 0.00 73 1020.3
20260901081028 73 0 0.0 1.0 0.00 0.00 0.00 73 1020.4
20260901080525 73 0 0.0 0.0 0.00 0.00 0.00 73 1020.3
20260901080047 73 0 0.0 0.0 0.00 0.00 0.00 73 1020.3
20260901075525 73 0 0.0 0.0 0.00 0.00 0.00 73 1020.2
20260901075023 73 0 0.0 0.0 0.00 0.00 0.00 73 1020.1
20260901074544 73 0 0.0 0.0 0.00 0.00 0.00 73 1020.2
20260901074024 73 0 0.0 0.0 0.00 0.00 0.00 73 1020.2
20260901073524 73 0 0.0 0.0 0.00 0.00 0.00 73 1020.3
20260901073048 73 0 0.0 0.0 0.00 0.00 0.00 73 1020.3
20260901072523 73 0 0.0 0.0 0.00 0.00 0.00 73 1020.3
20260901072026 73 0 0.0 0.0 0.00 0.00 0.00 73 1020.4
20260901071546 73 0 0.0 0.0 0.00 0.00 0.00 73 1020.5
20260901071024 73 0 0.0 0.0 0.00 0.00 0.00 73 1020.5
20260901070526 73 0 0.0 0.0 0.00 0.00 0.00 73 1020.6
20260901070051 73 0 0.0 0.0 0.00 0.00 0.00 73 1020.6
20260901065525 73 0 0.0 0.0 0.00 0.00 0.00 73 1020.6
20260901065024 74 0 0.0 0.0 0.00 0.00 0.00 73 1020.7
20260901064546 74 0 0.0 0.0 0.00 0.00 0.00 73 1020.7
20260901064025 74 0 0.0 1.0 0.00 0.00 0.00 73 1020.8
20260901063524 74 0 0.0 1.0 0.00 0.00 0.00 73 1020.7
20260901063049 73 0 0.0 1.0 0.00 0.00 0.00 73 1020.7
20260901062525 73 0 0.0 0.0 0.00 0.00 0.00 72 1020.7
20260901062026 73 0 0.0 1.0 0.00 0.00 0.00 72 1020.6
20260901061547 73 0 0.0 1.0 0.00 0.00 0.00 72 1020.8
20260901061024 73 0 0.0 1.0 0.00 0.00 0.00 71 1020.8
20260901060524 73 0 0.0 1.0 0.00 0.00 0.00 71 1020.9
20260901060046 73 0 0.0 0.0 0.00 0.00 0.00 71 1020.8
20260901055525 73 0 0.0 0.0 0.00 0.00 0.00 71 1020.9
20260901055024 74 0 0.0 0.0 0.00 0.00 0.00 71 1020.8
20260901054544 73 0 0.0 0.0 0.00 0.00 0.00 71 1020.8
20260901054025 73 0 0.0 0.0 0.00 0.00 0.00 71 1020.9
20260901053526 73 0 0.0 0.0 0.00 0.00 0.00 70 1021.0
20260901053053 73 0 0.0 0.0 0.00 0.00 0.00 70 1020.9
20260901052527 73 0 0.0 0.0 0.00 0.00 0.00 69 1021.0
20260901052026 73 0 0.0 0.0 0.00 0.00 0.00 70 1021.0
20260901051546 73 0 0.0 0.0 0.00 0.00 0.00 69 1021.0
20260901051030 73 0 0.0 0.0 0.00 0.00 0.00 69 1021.0
20260901050527 73 0 0.0 0.0 0.00 0.00 0.00 69 1021.0
20260901050043 73 0 0.0 0.0 0.00 0.00 0.00 68 1021.0
20260901045527 74 0 0.0 0.0 0.00 0.00 0.00 68 1021.0
20260901045024 74 0 0.0 1.0 0.00 0.00 0.00 68 1021.0
20260901044604 74 0 0.0 1.0 0.00 0.00 0.00 67 1021.0
20260901044026 74 0 0.0 0.0 0.00 0.00 0.00 67 1020.9
20260901043526 74 0 0.0 0.0 0.00 0.00 0.00 66 1020.8
20260901043049 74 0 0.0 0.0 0.00 0.00 0.00 66 1020.9
20260901042530 75 0 0.0 0.0 0.00 0.00 0.00 66 1020.9
20260901042025 75 0 0.0 0.0 0.00 0.00 0.00 65 1020.9
20260901041547 75 0 0.0 0.0 0.00 0.00 0.00 66 1020.9
20260901041026 75 0 0.0 0.0 0.00 0.00 0.00 66 1021.0
20260901040526 75 0 0.0 0.0 0.00 0.00 0.00 65 1020.9
20260901040044 75 0 0.0 0.0 0.00 0.00 0.00 65 1020.8
20260901035524 75 0 0.0 0.0 0.00 0.00 0.00 65 1020.9
20260901035025 75 0 0.0 0.0 0.00 0.00 0.00 65 1020.8
20260901034549 75 0 0.0 0.0 0.00 0.00 0.00 65 1020.8
20260901034028 75 0 0.0 0.0 0.00 0.00 0.00 65 1020.7
20260901033526 75 0 0.0 0.0 0.00 0.00 0.00 64 1020.7
20260901033045 75 0 0.0 0.0 0.00 0.00 0.00 64 1020.7
20260901032526 76 0 0.0 0.0 0.00 0.00 0.00 64 1020.8
20260901032025 76 0 0.0 0.0 0.00 0.00 0.00 64 1020.8
20260901031549 76 0 0.0 0.0 0.00 0.00 0.00 63 1020.8
20260901031026 76 0 0.0 0.0 0.00 0.00 0.00 63 1020.8
20260901030525 76 0 0.0 0.0 0.00 0.00 0.00 62 1020.8
20260901030050 76 0 0.0 0.0 0.00 0.00 0.00 62 1020.8
20260901025525 76 0 0.0 0.0 0.00 0.00 0.00 62 1020.8
20260901025025 77 0 0.0 0.0 0.00 0.00 0.00 62 1020.8
20260901024542 77 0 0.0 1.0 0.00 0.00 0.00 62 1020.8
20260901024027 77 0 0.0 1.0 0.00 0.00 0.00 62 1020.8
20260901023525 77 0 0.0 1.0 0.00 0.00 0.00 62 1020.7
20260901023048 77 0 0.0 0.0 0.00 0.00 0.00 62 1020.5
20260901022525 77 0 0.0 0.0 0.00 0.00 0.00 61 1020.7
20260901022025 77 0 0.0 0.0 0.00 0.00 0.00 61 1020.6
20260901021545 77 0 0.0 0.0 0.00 0.00 0.00 61 1020.5
20260901021025 78 0 0.0 0.0 0.00 0.00 0.00 61 1020.5
20260901020524 78 0 0.0 0.0 0.00 0.00 0.00 60 1020.5
20260901020043 78 0 0.0 0.0 0.00 0.00 0.00 60 1020.4
20260901015523 78 0 0.0 0.0 0.00 0.00 0.00 59 1020.4
20260901015025 78 0 0.0 0.0 0.00 0.00 0.00 60 1020.5
20260901014603 78 0 0.0 0.0 0.00 0.00 0.00 60 1020.3
20260901014026 78 0 0.0 0.0 0.00 0.00 0.00 60 1020.3
20260901013528 78 0 0.0 0.0 0.00 0.00 0.00 60 1020.2
20260901013047 78 0 0.0 0.0 0.00 0.00 0.00 60 1020.2
20260901012528 78 0 0.0 0.0 0.00 0.00 0.00 60 1020.2
20260901012024 78 0 0.0 0.0 0.00 0.00 0.00 59 1020.1
20260901011546 79 0 0.0 0.0 0.00 0.00 0.00 59 1019.9
20260901011024 79 0 0.0 0.0 0.00 0.00 0.00 59 1019.8
20260901010524 79 0 0.0 0.0 0.00 0.00 0.00 59 1019.8
20260901010048 79 0 0.0 0.0 0.00 0.00 0.00 59 1019.8
20260901005524 79 0 0.0 0.0 0.00 0.00 0.00 58 1019.8
20260901005023 79 0 0.0 0.0 0.00 0.00 0.00 58 1019.7
20260901004556 80 0 0.0 0.0 0.00 0.00 0.00 57 1019.7
20260901004028 80 0 0.0 0.0 0.00 0.00 0.00 57 1019.7
20260901003525 80 0 0.0 0.0 0.00 0.00 0.00 57 1019.6
20260901003048 80 0 0.0 0.0 0.00 0.00 0.00 57 1019.5
20260901002525 80 0 0.0 0.0 0.00 0.00 0.00 57 1019.6
20260901002024 81 0 0.0 0.0 0.00 0.00 0.00 56 1019.6
20260901001547 81 0 0.0 0.0 0.00 0.00 0.00 56 1019.7
20260901001024 81 0 0.0 0.0 0.00 0.00 0.00 55 1019.7
20260901000523 81 0 0.0 0.0 0.00 0.00 0.00 55 1019.7
20260901000046 82 0 0.0 0.0 0.00 0.00 0.00 55 1019.6
20260831235524 82 0 0.0 0.0 0.00 0.00 0.00 55 1019.6
20260831235024 82 0 0.0 0.0 0.00 0.00 0.00 54 1019.7
20260831234542 83 0 0.0 0.0 0.00 0.00 0.00 54 1019.7
20260831234023 83 0 0.0 0.0 0.00 0.00 0.00 54 1019.6
20260831233525 84 0 0.0 0.0 0.00 0.00 0.00 54 1019.7
20260831233048 84 0 0.0 0.0 0.00 0.00 0.00 53 1019.7
20260831232525 84 183 0.0 1.0 0.00 0.00 0.00 52 1019.7
20260831232028 85 184 0.0 1.0 0.00 0.00 0.00 52 1019.7
20260831231546 85 0 0.0 2.0 0.00 0.00 0.00 51 1019.8
20260831231024 85 0 0.0 3.0 0.00 0.00 0.00 50 1019.8
20260831230523 86 0 0.0 3.0 0.00 0.00 0.00 49 1019.8
20260831230046 86 255 0.0 1.0 0.00 0.00 0.00 48 1019.8
20260831225525 87 264 0.0 1.0 0.00 0.00 0.00 47 1019.8
20260831225029 87 211 0.0 3.0 0.00 0.00 0.00 46 1019.8
20260831224550 87 0 0.0 3.0 0.00 0.00 0.00 46 1019.8
20260831224026 88 281 0.0 4.0 0.00 0.00 0.00 45 1019.8
20260831223529 88 0 1.0 4.0 0.00 0.00 0.00 44 1019.8
20260831223047 88 303 0.0 5.0 0.00 0.00 0.00 45 1019.8
20260831222526 88 44 1.0 5.0 0.00 0.00 0.00 44 1019.8
20260831222025 89 298 1.0 5.0 0.00 0.00 0.00 43 1019.7
20260831221547 89 307 1.0 5.0 0.00 0.00 0.00 43 1019.7
20260831221025 90 290 1.0 5.0 0.00 0.00 0.00 43 1019.8
20260831220529 90 281 1.0 5.0 0.00 0.00 0.00 43 1019.8
20260831220044 91 12 2.0 5.0 0.00 0.00 0.00 41 1019.8
20260831215524 91 352 1.0 5.0 0.00 0.00 0.00 41 1019.9
20260831215024 92 290 1.0 5.0 0.00 0.00 0.00 39 1019.9
20260831214603 92 271 1.0 5.0 0.00 0.00 0.00 34 1020.1
20260831214024 92 241 1.0 5.0 0.00 0.00 0.00 35 1020.1
20260831213526 92 309 2.0 5.0 0.00 0.00 0.00 34 1020.2
20260831213047 92 301 1.0 4.0 0.00 0.00 0.00 32 1020.3
20260831212526 92 301 1.0 4.0 0.00 0.00 0.00 32 1020.4
20260831212025 91 89 0.0 3.0 0.00 0.00 0.00 34 1020.3
20260831211543 91 307 0.0 4.0 0.00 0.00 0.00 37 1020.3
20260831211027 91 0 0.0 4.0 0.00 0.00 0.00 36 1020.2
20260831210524 91 93 1.0 4.0 0.00 0.00 0.00 35 1020.1
20260831210049 92 102 1.0 5.0 0.00 0.00 0.00 33 1020.0
20260831205525 91 0 0.0 6.0 0.00 0.00 0.00 33 1020.0
20260831205026 92 113 3.0 6.0 0.00 0.00 0.00 32 1020.0
20260831204552 92 119 0.0 4.0 0.00 0.00 0.00 34 1020.0
20260831204027 92 122 1.0 4.0 0.00 0.00 0.00 33 1020.1
20260831203525 93 98 1.0 3.0 0.00 0.00 0.00 27 1020.1
20260831203049 94 0 0.0 1.0 0.00 0.00 0.00 29 1020.1
20260831202529 93 0 0.0 3.0 0.00 0.00 0.00 30 1020.2
20260831202031 92 0 0.0 5.0 0.00 0.00 0.00 30 1020.2
20260831201549 93 108 2.0 5.0 0.00 0.00 0.00 29 1020.3
20260831201030 93 0 1.0 5.0 0.00 0.00 0.00 29 1020.3
20260831200526 93 115 0.0 5.0 0.00 0.00 0.00 32 1020.4
20260831200049 93 119 3.0 5.0 0.00 0.00 0.00 31 1020.4
20260831195523 93 123 0.0 5.0 0.00 0.00 0.00 33 1020.5
20260831195024 92 95 2.0 7.0 0.00 0.00 0.00 34 1020.4
20260831194545 92 96 1.0 7.0 0.00 0.00 0.00 34 1020.5
20260831194025 92 93 5.0 7.0 0.00 0.00 0.00 32 1020.5
20260831193527 93 86 1.0 4.0 0.00 0.00 0.00 37 1020.6
20260831193046 92 285 1.0 3.0 0.00 0.00 0.00 33 1020.7
20260831192522 92 290 0.0 3.0 0.00 0.00 0.00 34 1020.7
20260831192028 92 0 0.0 5.0 0.00 0.00 0.00 35 1020.8
20260831191545 91 0 0.0 5.0 0.00 0.00 0.00 35 1020.8
20260831191024 90 113 2.0 5.0 0.00 0.00 0.00 33 1020.8
20260831190525 91 101 2.0 5.0 0.00 0.00 0.00 35 1020.9
20260831190105 91 79 2.0 7.0 0.00 0.00 0.00 36 1021.1
20260831185524 91 105 3.0 7.0 0.00 0.00 0.00 36 1021.3
20260831185023 91 125 5.0 8.0 0.00 0.00 0.00 38 1021.3
20260831184544 92 142 3.0 8.0 0.00 0.00 0.00 36 1021.3
20260831184024 92 97 3.0 9.0 0.00 0.00 0.00 37 1021.4
20260831183527 92 94 1.0 9.0 0.00 0.00 0.00 40 1021.3
20260831183058 92 275 1.0 4.0 0.00 0.00 0.00 40 1021.3
20260831182531 92 91 0.0 3.0 0.00 0.00 0.00 40 1021.3
20260831182026 91 320 1.0 3.0 0.00 0.00 0.00 39 1021.3
20260831181545 92 290 1.0 2.0 0.00 0.00 0.00 39 1021.4
20260831181025 91 0 0.0 6.0 0.00 0.00 0.00 43 1021.5
20260831180525 91 299 1.0 6.0 0.00 0.00 0.00 42 1021.6
20260831180045 91 92 2.0 4.0 0.00 0.00 0.00 43 1021.7
20260831175527 92 285 1.0 2.0 0.00 0.00 0.00 43 1021.7
20260831175022 91 0 0.0 2.0 0.00 0.00 0.00 46 1021.7
20260831174553 90 295 1.0 3.0 0.00 0.00 0.00 41 1021.8
20260831174024 89 259 1.0 6.0 0.00 0.00 0.00 43 1021.8
20260831173526 89 103 2.0 6.0 0.00 0.00 0.00 45 1021.9
20260831173046 90 107 1.0 6.0 0.00 0.00 0.00 44 1021.9
20260831172524 90 100 3.0 6.0 0.00 0.00 0.00 45 1021.9
20260831172025 90 131 1.0 7.0 0.00 0.00 0.00 43 1022.0
20260831171544 90 0 1.0 7.0 0.00 0.00 0.00 46 1022.1
20260831171024 90 0 0.0 6.0 0.00 0.00 0.00 44 1022.2
20260831170523 89 128 2.0 7.0 0.00 0.00 0.00 46 1022.1
20260831170043 89 82 4.0 7.0 0.00 0.00 0.00 46 1022.1
20260831165524 89 0 1.0 5.0 0.00 0.00 0.00 48 1022.1
20260831165029 89 87 0.0 5.0 0.00 0.00 0.00 49 1022.1
20260831164546 88 106 0.0 4.0 0.00 0.00 0.00 48 1022.0
20260831164024 89 84 0.0 3.0 0.00 0.00 0.00 49 1022.1
20260831163525 88 0 0.0 3.0 0.00 0.00 0.00 52 1022.1
20260831163046 88 305 0.0 4.0 0.00 0.00 0.00 51 1022.1
20260831162526 87 0 0.0 4.0 0.00 0.00 0.00 63 1022.3
20260831162026 86 318 1.0 4.0 0.00 0.00 0.00 61 1022.5
20260831161547 86 290 3.0 4.0 0.00 0.00 0.00 60 1022.5
20260831161022 87 295 1.0 3.0 0.00 0.00 0.00 62 1022.5
20260831160524 86 46 1.0 5.0 0.00 0.00 0.00 63 1022.6
20260831160047 86 84 2.0 5.0 0.00 0.00 0.00 65 1022.5
20260831155524 86 124 1.0 4.0 0.00 0.00 0.00 63 1022.5
20260831155027 86 98 1.0 4.0 0.00 0.00 0.00 64 1022.6
20260831154619 85 276 1.0 4.0 0.00 0.00 0.00 66 1022.6
20260831154024 84 0 1.0 4.0 0.00 0.00 0.00 65 1022.7
20260831153522 84 19 1.0 4.0 0.00 0.00 0.00 66 1022.8
20260831153047 84 304 1.0 3.0 0.00 0.00 0.00 66 1022.8
20260831152530 85 302 1.0 3.0 0.00 0.00 0.00 66 1022.8
20260831152027 86 300 1.0 2.0 0.00 0.00 0.00 67 1022.9
20260831151547 85 123 0.0 2.0 0.00 0.00 0.00 67 1022.8
20260831151027 84 44 0.0 2.0 0.00 0.00 0.00 69 1022.9
20260831150526 82 0 0.0 3.0 0.00 0.00 0.00 69 1022.9
20260831150043 83 346 1.0 3.0 0.00 0.00 0.00 68 1022.9
20260831145525 83 291 1.0 3.0 0.00 0.00 0.00 68 1022.9
20260831145024 83 0 0.0 3.0 0.00 0.00 0.00 71 1022.9
20260831144542 83 304 1.0 3.0 0.00 0.00 0.00 69 1022.9
20260831144025 83 0 0.0 3.0 0.00 0.00 0.00 69 1022.9
20260831143530 83 288 1.0 3.0 0.00 0.00 0.00 69 1022.8
20260831143051 84 325 0.0 2.0 0.00 0.00 0.00 67 1022.7
20260831142523 84 0 0.0 2.0 0.00 0.00 0.00 68 1022.8
20260831142023 86 280 0.0 1.0 0.00 0.00 0.00 66 1022.7
20260831141545 86 0 0.0 1.0 0.00 0.00 0.00 67 1022.7
20260831141023 85 0 0.0 0.0 0.00 0.00 0.00 68 1022.7
20260831140526 84 0 0.0 2.0 0.00 0.00 0.00 70 1022.7
20260831140044 83 0 0.0 2.0 0.00 0.00 0.00 70 1022.7
20260831135522 83 0 0.0 3.0 0.00 0.00 0.00 70 1022.8
20260831135027 82 0 0.0 3.0 0.00 0.00 0.00 70 1022.7
20260831134542 83 0 0.0 2.0 0.00 0.00 0.00 70 1022.7
20260831134026 82 0 0.0 2.0 0.00 0.00 0.00 71 1022.6
20260831133525 81 288 0.0 2.0 0.00 0.00 0.00 72 1022.4
20260831133051 81 0 0.0 2.0 0.00 0.00 0.00 72 1022.5
20260831132524 80 0 0.0 1.0 0.00 0.00 0.00 74 1022.6
20260831132024 79 0 0.0 1.0 0.00 0.00 0.00 74 1022.6